Location: Chochol
(49.7771°N, 14.9780°E)
Time: 10:18:42
(UTC+00:00)

Daily predictions for brighter satellites

Satellite Brightness Start Highest point End
(mag) Time Altitude Azimuth Time Altitude Azimuth Time Altitude Azimuth
ATLAS CENTAUR R/B 3.6 18:28:39 10° N 18:30:25 13° NNE 18:32:15 10° NE
CSL-04 Debris 4.2 18:26:11 10° SSE 18:31:35 70° ENE 18:37:02 10° N
Cosmos 1346 Rocket 3.4 18:28:34 10° SSW 18:32:20 59° WNW 18:36:07 10° N
ATLAS 3B R/B 3.0 18:29:37 10° SSW 18:36:23 50° ESE 18:43:37 10° NE
Cosmos 371 Rocket 3.8 18:32:55 10° NNW 18:37:31 44° ENE 18:42:04 10° SE
SL-4 R/B 2.0 18:35:18 10° W 18:38:59 63° N 18:42:27 10° E
COSMOS 2455 3.9 18:33:30 10° NNW 18:38:59 34° NE 18:44:28 10° ESE
CSL-04 Rocket 3.7 18:34:34 10° SSE 18:40:04 75° ENE 18:45:31 10° NNW
SJ-6B 4.0 18:37:08 10° S 18:40:58 46° W 18:44:50 10° NNW
Cosmos 304 Rocket 4.4 18:37:00 10° NNW 18:41:30 39° ENE 18:45:58 10° SE
In-Cosmos 22 Rocket 4.3 18:38:19 10° NNW 18:43:46 80° W 18:49:19 10° S
Cosmos 2181 Rocket 4.2 18:40:28 10° SSW 18:46:40 80° W 18:53:02 10° N
Okean 2 Rocket 3.9 18:43:25 10° SSE 18:47:23 31° E 18:51:22 10° NNE
MOS 1-B 4.5 18:43:15 10° SSE 18:49:03 83° WSW 18:54:54 10° NNW
Cosmos 1992 Rocket 4.0 18:44:15 10° SSW 18:49:28 89° WNW 18:54:44 10° NNE
CZ-4C R/B 3.7 18:43:29 10° NW 18:49:39 40° NNE 18:57:09 10° E
SPOT 5 3.8 18:47:08 10° SE 18:51:56 36° ENE 18:56:40 10° N
Cosmos 2297 Rocket 2.9 18:48:35 10° NNW 18:53:55 41° NE 18:58:46 12° ESE
Cosmos 1503 Rocket 4.1 18:52:32 10° NNW 18:57:55 69° ENE 19:03:14 10° SSE
Cosmos 2369 Rocket 3.8 18:52:59 10° WSW 18:58:16 39° NW 19:03:34 10° NNE
Cosmos 1354 Rocket 4.3 18:55:31 10° NNW 19:00:47 57° ENE 19:05:35 12° SE
Cosmos 1656 4.4 18:56:31 10° SSE 19:01:18 30° ESE 19:06:04 10° NE
BlueWalker 3 2.7 18:58:38 10° SSW 19:01:58 29° SE 19:05:20 10° E
Terra 3.1 19:01:25 13° ESE 19:04:38 25° ENE 19:08:27 10° N
ATLAS 5 CENTAUR R/B 1.2 19:02:54 10° SW 19:06:15 72° NW 19:10:04 10° NE
PSLV R/B 4.3 19:04:18 10° S 19:07:57 57° WSW 19:11:42 10° NNW
Cosmos 2098 Rocket 3.5 19:03:53 10° SSW 19:08:32 64° W 19:12:20 10° N
CARTOSAT-1 3.8 19:04:24 10° S 19:08:39 70° WSW 19:12:56 10° NNW
Iridium 4 Rocket 4.3 19:04:31 10° SSE 19:09:38 39° E 19:15:00 10° NNE
Sich 1 Rocket 3.7 19:06:34 10° S 19:10:51 53° E 19:15:13 10° NNE
Okean 1 Rocket 3.8 19:06:57 10° SSE 19:10:54 34° E 19:14:56 10° NNE
Okean-O 2.6 19:11:14 10° SSE 19:15:38 80° ENE 19:20:03 10° NNW
CZ-4B R/B 4.4 19:12:33 10° S 19:17:54 44° W 19:23:13 10° NNW
Ariane Rocket 3.9 19:16:23 17° ESE 19:19:35 32° ENE 19:24:03 10° N
Cosmos 2263 Rocket 4.0 19:16:10 10° N 19:20:14 20° NE 19:24:14 10° E
CZ-4C R/B 2.9 19:17:39 10° NNE 19:21:02 58° ESE 19:24:21 10° S
Nadezhda 3 Rocket 4.0 19:16:41 10° S 19:22:50 89° W 19:29:05 10° N
Cosmos 1437 Rocket 4.1 19:20:48 10° NNE 19:24:01 24° ENE 19:25:29 19° E
USA 186 4.2 19:22:13 10° SW 19:24:33 20° W 19:26:52 10° NW
Genesis I 3.0 19:21:05 10° NW 19:24:43 80° SW 19:26:55 22° SSE
USA 267 3.5 19:18:56 10° ENE 19:25:29 74° NNW 19:32:01 10° WSW
Cosmos 44 4.1 19:20:59 10° S 19:25:49 34° ESE 19:30:35 10° NE
BREEZE-M R/B 1.8 19:24:21 10° W 19:26:51 57° SSW 19:27:40 34° SE
Cosmos 1605 Rocket 4.3 19:23:41 10° N 19:29:56 52° ENE 19:34:28 19° SE
Okean O Rocket 2.9 19:26:29 10° SSW 19:30:34 39° W 19:34:43 10° NNW
Aureole 1 Rocket 3.8 19:31:28 10° N 19:33:50 21° ENE 19:34:29 19° ENE
CZ-4 R/B 4.2 19:33:47 10° SW 19:35:59 14° W 19:38:09 10° NW
Cosmos 1536 Rocket 4.0 19:37:22 10° NNW 19:41:45 63° W 19:45:49 12° S
Resurs 01 Rocket 3.5 19:41:38 10° SSW 19:45:28 29° W 19:49:20 10° NW
IRS-1C Rocket 4.1 19:42:38 17° SSE 19:46:45 86° WSW 19:52:04 10° NNW
MOS 1 Rocket 4.2 19:46:11 23° E 19:47:35 29° ENE 19:51:22 10° N
Cosmos 2058 4.0 19:46:21 10° NNE 19:49:47 26° ENE 19:50:33 25° E
CENTAUR R/B 3.7 19:43:19 10° NW 19:50:55 51° NE 19:57:39 18° ESE
NOSS 3-1 (A) 3.4 19:47:50 10° SW 19:52:53 72° NW 19:59:05 10° NE
ERS-1 Rocket 2.9 19:51:26 26° SSE 19:54:20 75° ENE 19:59:22 10° NNW
SPOT 3 Rocket 3.7 19:55:09 29° SE 19:57:43 59° ENE 20:02:50 10° N
Cosmos 1934 Rocket 4.3 19:54:31 10° NNW 20:00:36 64° W 20:06:25 12° S
USA 229 DEB 3.5 19:55:42 10° SSW 20:01:42 60° SE 20:08:21 10° NE
USA 229 3.5 19:55:48 10° SSW 20:01:48 59° SE 20:08:26 10° NE
USA 234 4.4 19:58:35 15° S 20:03:10 32° SW 20:08:55 10° WNW
USA 281 4.0 19:59:02 11° S 20:05:00 45° WSW 20:11:17 10° NW
Landsat 5 4.2 20:03:10 10° NNE 20:06:58 33° E 20:06:58 33° E
Cosmos 1727 Rocket 4.4 20:04:27 29° SE 20:07:05 44° E 20:12:57 10° NNE
ATLAS CENTAUR R/B 1.7 20:05:25 10° NNW 20:09:03 46° NE 20:09:58 38° E
Cosmos 2227 Rocket 2.2 20:04:07 10° NNW 20:09:50 74° ENE 20:12:21 34° SE
Cosmos 1980 Rocket 3.4 20:13:33 22° E 20:13:33 22° E 20:17:10 10° NE
Cosmos 1892 Rocket 3.4 20:12:26 10° N 20:16:47 90° ESE 20:18:10 43° S
Cosmos 292 Rocket 4.3 20:12:38 10° NNW 20:17:13 45° ENE 20:18:28 36° E
SL-4 R/B 1.4 20:14:18 10° WNW 20:17:52 72° SSW 20:17:57 71° S
Landsat 4 4.5 20:17:01 29° SSW 20:18:16 42° W 20:21:39 10° NNW
Cosmos 1697 Rocket 2.8 20:18:56 32° S 20:21:18 52° ESE 20:26:48 10° NE
Cosmos 1937 Rocket 4.1 20:16:54 10° NNW 20:22:00 44° ENE 20:23:39 34° ESE
Cosmos 2360 4.1 20:17:18 13° SSW 20:22:28 70° ESE 20:28:08 10° NNE
COSMOS 2455 3.0 20:19:21 10° NW 20:25:21 65° WSW 20:27:59 34° S
ATLAS 3B R/B 3.6 20:20:05 10° WSW 20:27:11 55° NW 20:34:45 10° NE
SPOT 5 4.2 20:26:04 16° SSW 20:29:53 40° W 20:34:48 10° NNW
MetOp-A 3.2 20:30:40 63° E 20:30:52 64° ENE 20:34:38 10° N
Cosmos 405 Rocket 2.7 20:33:26 59° SW 20:34:02 75° WNW 20:37:47 10° N
Cosmos 1898 Rocket 3.5 20:29:27 10° NNW 20:34:43 71° ENE 20:36:04 49° SE
Cosmos 1758 Rocket 4.4 20:30:44 10° N 20:34:50 34° ENE 20:35:01 34° ENE
Cosmos 2228 4.3 20:38:16 26° ENE 20:38:16 26° ENE 20:40:57 10° NNE
Cosmos 2297 Rocket 3.1 20:32:43 10° NW 20:38:00 41° WSW 20:40:36 26° SSW
Spot 2 Rocket 3.8 20:36:25 34° SSW 20:38:28 60° WSW 20:43:29 10° NNW
CZ-4C R/B 3.0 20:31:44 10° NW 20:38:48 81° SW 20:42:37 36° SSE
BlueWalker 3 1.9 20:36:09 10° WSW 20:39:59 77° NNW 20:40:37 59° NE
ARIANE 5 R/B 3.8 20:39:49 30° ENE 20:40:11 30° ENE 20:44:07 10° N
USA 81 3.9 20:38:46 47° SSE 20:40:15 74° E 20:45:32 10° N
Terra 2.5 20:40:08 32° SSW 20:41:58 49° W 20:46:34 10° NNW
Cosmos 1656 4.4 20:39:18 10° SW 20:44:42 51° NW 20:50:05 10° NNE
Meteor 2-13 Rocket 4.5 20:43:00 44° SSE 20:44:50 62° E 20:50:55 10° NNE
Meteor 2-1 Rocket 4.2 20:45:49 51° SE 20:46:49 60° E 20:52:15 10° NNE
Spot 1 4.1 20:43:16 10° NNE 20:47:58 84° WNW 20:49:02 52° SSW
Cosmos 1455 Rocket 3.4 20:46:45 38° SW 20:48:14 62° WNW 20:52:36 10° N
Cosmos 1725 Rocket 4.4 20:43:04 10° N 20:49:02 47° ENE 20:50:29 40° ESE
Cosmos 1459 Rocket 3.9 20:44:20 10° N 20:50:25 70° ENE 20:52:04 48° SE
ATLAS 5 CENTAUR R/B 4.1 20:48:22 10° WNW 20:50:56 18° NNW 20:53:47 10° NNE
Cosmos 2219 3.1 20:47:32 10° NNW 20:53:14 88° ENE 20:54:33 55° SSE
Ariane Rocket 3.9 20:56:30 29° SW 20:58:25 41° W 21:03:12 10° NNW
Cosmos 1437 Rocket 4.0 20:56:15 10° NNW 20:59:49 33° W 21:00:22 32° WSW
Cosmos 1763 Rocket 4.0 20:57:45 18° SW 21:01:27 58° WNW 21:06:33 10° NNE
Cosmos 858 Rocket 4.5 20:56:50 10° NNW 21:02:09 71° ENE 21:02:52 61° ESE
Cosmos 2263 Rocket 2.1 20:59:28 10° NNW 21:05:07 76° ENE 21:06:06 60° SE
Cosmos 44 4.2 21:01:35 10° WSW 21:06:52 54° NW 21:12:04 10° NE
USA 267 4.1 21:01:51 10° ENE 21:08:06 49° N 21:14:21 10° WNW
Cosmos 2082 3.6 21:05:55 10° NNW 21:11:36 83° ENE 21:12:29 65° SE
Cosmos 2173 Rocket 4.0 21:08:50 10° NNW 21:15:14 78° W 21:17:01 50° S
NOSS 3-2 (A) 4.0 21:09:36 10° NW 21:16:51 81° NE 21:19:58 43° SE
Meteor 2-3 Rocket 3.6 21:13:04 10° NNW 21:18:48 89° W 21:19:41 66° S
Cosmos 2322 Rocket 4.5 21:22:13 11° ENE 21:22:13 11° ENE 21:22:29 10° ENE
Cosmos 540 Rocket 4.0 21:18:45 28° SW 21:21:12 54° WNW 21:26:14 10° NNE
Cosmos 1606 3.9 21:23:39 37° N 21:23:39 37° N 21:25:57 10° N
MOS 1 Rocket 4.2 21:25:22 33° WSW 21:25:40 34° W 21:29:40 10° NNW
Cosmos 2058 4.3 21:22:50 10° NNW 21:26:24 30° W 21:26:27 30° W
Meteor 2-15 4.4 21:22:38 10° NNW 21:28:46 76° W 21:29:59 58° SSW
Cosmos 1626 Rocket 4.2 21:24:53 10° NNW 21:29:06 49° W 21:29:06 49° W
Spot 4 4.5 21:30:18 44° ENE 21:30:18 44° ENE 21:34:45 10° N
Cosmos 372 Rocket 4.4 21:26:43 10° NNW 21:31:48 51° WSW 21:32:09 50° WSW
Meteor 2-15 Rocket 4.3 21:25:55 10° N 21:32:06 88° E 21:33:02 66° SSE
Cosmos 1864 Rocket 4.4 21:28:28 10° N 21:34:40 82° W 21:35:41 64° S
Cosmos 1802 Rocket 4.1 21:31:27 10° NNW 21:37:42 71° W 21:38:59 56° SSW
SL-16 R/B 3.7 21:41:08 24° ENE 21:41:08 24° ENE 21:44:14 10° NE
CENTAUR R/B 3.3 21:34:01 10° NW 21:42:11 67° SW 21:44:48 49° S
Cosmos 1869 4.5 21:43:57 39° NW 21:43:57 39° NW 21:46:52 10° N
Cosmos 841 Rocket 3.5 21:43:35 70° W 21:43:55 73° WNW 21:49:04 10° NNE
Cosmos 2016 Rocket 3.9 21:38:54 10° NNW 21:45:00 74° W 21:45:55 63° SSW
ATLAS CENTAUR R/B 3.4 21:43:33 10° WNW 21:45:04 18° W 21:45:04 18° W
Cosmos 1844 Rocket 3.4 21:44:15 10° NNW 21:49:36 42° NE 21:50:30 39° ENE
Cosmos 1125 Rocket 4.4 21:46:17 10° NNW 21:51:11 38° ENE 21:51:35 38° ENE
H-2A R/B 3.6 21:54:16 38° NNW 21:54:16 38° NNW 21:56:43 10° NNW
Cosmos 2227 Rocket 3.9 21:49:08 10° NW 21:53:16 21° W 21:54:10 20° WSW
Cosmos 1980 Rocket 2.4 21:55:14 55° WSW 21:56:19 68° WNW 22:01:58 10° NNE
Cosmos 967 Rocket 4.4 21:53:54 10° NW 22:00:20 68° WSW 22:00:44 66° SW
Cosmos 2278 4.2 22:02:49 46° ENE 22:02:49 46° ENE 22:07:17 10° NE
Cosmos 1697 Rocket 4.2 22:00:33 11° WSW 22:05:31 34° NW 22:10:40 10° NNE
Cosmos 2123 Rocket 4.4 22:05:45 47° WSW 22:07:15 58° WNW 22:13:32 10° N
Cosmos 2151 4.0 22:03:37 10° N 22:06:35 42° NNE 22:06:35 42° NNE
CZ-2C R/B 4.3 22:06:14 10° N 22:10:47 53° WNW 22:10:47 53° WNW
Meteor 1-27 4.2 22:10:41 72° W 22:10:52 73° WNW 22:16:27 10° N
ARIANE 5 R/B 4.0 22:17:17 33° WNW 22:17:17 33° WNW 22:20:40 10° NNW
CZ-4C R/B 4.3 22:21:00 10° WNW 22:26:49 24° WSW 22:27:43 24° WSW
Cosmos 2227 4.3 22:22:27 10° NNW 22:27:45 66° W 22:27:45 66° W
Cosmos 2237 4.5 22:29:24 59° ENE 22:29:24 59° ENE 22:34:16 10° NNE
Cosmos 2369 4.3 22:27:50 43° W 22:29:03 51° NW 22:34:35 10° NNE
Lacrosse 4 Rocket 3.1 22:33:41 29° NNE 22:33:41 29° NNE 22:35:47 10° NNE
H-2A R/B 3.6 22:28:28 10° NNE 22:30:48 29° NE 22:30:48 29° NE
NOSS 3-2 (C) 3.9 22:25:39 10° NW 22:33:01 78° SW 22:34:32 62° SSE
ALOS 2 3.6 22:35:57 44° NW 22:35:57 44° NW 22:39:05 10° NNW
Cosmos 2233 Rocket 4.4 22:28:57 10° NNW 22:34:51 48° W 22:35:19 47° WSW
Cosmos 1447 Rocket 4.4 22:42:34 69° WSW 22:42:58 71° WNW 22:49:09 10° N
Cosmos 1464 Rocket 4.0 22:38:10 10° N 22:44:34 74° E 22:44:59 71° ESE
Cosmos 1814 Rocket 4.3 22:45:04 60° NW 22:45:04 60° NW 22:49:55 10° NNE
Cosmos 2058 Rocket 4.1 22:47:28 43° N 22:47:28 43° N 22:50:27 10° N
Cosmos 2263 Rocket 4.0 22:44:27 10° NW 22:47:47 20° W 22:47:47 20° W
Cosmos 2360 Rocket 3.0 22:51:06 41° E 22:51:06 41° E 22:55:25 10° NE
USA 267 3.8 22:44:11 10° E 22:50:33 55° NNE 22:56:54 10° WNW
Meteor 2-21 4.4 22:58:06 75° ESE 22:58:11 76° E 23:04:24 10° NNE
Cosmos 1891 Rocket 4.5 22:53:01 10° NNW 22:59:09 68° W 22:59:17 67° WSW
Meteor 1-20 Rocket 4.2 22:53:43 10° NNW 22:59:08 82° NNE 22:59:08 82° NNE
Cosmos 1513 Rocket 4.4 22:53:30 10° NNW 22:59:35 72° W 22:59:38 72° W
Cosmos 1570 Rocket 4.2 23:02:43 66° NNE 23:02:43 66° NNE 23:07:12 10° NNE
Cosmos 2333 Rocket 2.8 23:03:47 45° E 23:03:47 45° E 23:08:19 10° NE
Cosmos 2322 Rocket 2.3 23:03:59 65° ENE 23:03:59 65° ENE 23:08:56 10° NNE
Cosmos 2278 Rocket 4.3 22:59:21 10° NNW 23:03:45 22° NE 23:08:08 10° E
Lacrosse 5 3.1 23:05:57 33° ENE 23:05:57 33° ENE 23:08:51 10° ENE
Cosmos 2219 Rocket 3.4 23:05:42 30° E 23:05:42 30° E 23:09:38 10° NE
Cosmos 2034 Rocket 3.9 23:00:30 10° N 23:06:42 74° ENE 23:07:00 72° ESE
Meteor 1-25 Rocket 4.2 23:05:44 10° NNW 23:11:03 80° N 23:11:03 80° N
Geosat 4.2 23:20:32 67° NNE 23:20:32 67° NNE 23:25:16 10° NNW
SL-16 R/B 2.5 23:22:57 58° WNW 23:23:15 59° WNW 23:28:53 10° NNE
Cosmos 1844 4.3 23:18:50 10° NW 23:23:28 47° WNW 23:23:28 47° WNW
Cosmos 1634 Rocket 4.3 23:21:21 10° N 23:27:37 58° ENE 23:28:37 52° ESE
USA 238 DEB 3.9 23:25:28 10° NW 23:32:40 60° SW 23:32:58 60° SW
USA 238 3.9 23:25:34 10° NW 23:32:46 61° SW 23:33:05 60° SW
Cosmos 1844 Rocket 3.7 23:28:18 10° NW 23:32:08 34° WNW 23:32:08 34° WNW
IDEFIX/ARIANE 42P 4.4 23:35:31 10° NE 23:39:07 19° E 23:39:49 18° E
Resurs 1-4 Rocket 4.2 23:36:15 10° NE 23:39:26 16° E 23:40:30 15° ESE
Cosmos 158 Rocket 4.1 23:41:25 64° N 23:41:25 64° N 23:45:48 10° NNE
Cosmos 1943 Rocket 4.3 23:36:45 10° NNW 23:41:19 24° NE 23:45:51 10° E
Timation 2 Rocket 4.4 23:42:36 10° NW 23:48:19 47° W 23:48:19 47° W
Meteor 2-2 Rocket 4.2 23:48:58 77° W 23:49:07 78° WNW 23:55:07 10° N
Cosmos 1766 Rocket 4.4 23:47:52 10° N 23:51:19 48° NNE 23:51:19 48° NNE
Cosmos 1743 4.4 23:51:13 10° N 23:53:28 30° NNE 23:53:28 30° NNE
